Location: Newport
(44.6370°N, 124.0520°W)
Time: 00:50:39
(UTC-07:00)

OTV 5 (USA 277) - Pass Details

Date: 16 October 2017
Orbit: 404 x 417 km, 43.0° (Epoch: 07 September)

Event Time Altitude Azimuth Distance (km) Brightness Sun altitude
Rises 19:33:15 0° 266° (W) 2,353 ? -12.1°
Reaches altitude 10° 19:35:22 10° 263° (W) 1,491 ? -12.5°
Maximum altitude 19:38:43 67° 181° (S) 454 ? -13.1°
Enters shadow 19:40:31 25° 103° (ESE) 887 ? -13.4°
